Regional Weather Roundup
Issued by NWS

Home | Current Version | Previous Version | Graphics & Text | Print | Product List | Glossary On
Versions: 1 2 3 4 5 6 7 8 9 10 11 12 13 14 15 16 17 18 19 20 21 22 23 24 25 26 27 28 29 30 31 32 33 34 35 36 37 38 39 40 41 42 43 44 45 46 47 48 49 50
001
ASUS43 KIND 011709
RWRIN

WEATHER ROUNDUP FOR INDIANA
NATIONAL WEATHER SERVICE INDIANAPOLIS IN
100 PM EDT SAT OCT 01 2016

NOTE: "FAIR" INDICATES FEW OR NO CLOUDS BELOW 12,000 FEET WITH NO
SIGNIFICANT WEATHER AND/OR OBSTRUCTIONS TO VISIBILITY.

* - STATION DOES NOT REPORT WEATHER SUCH AS PRECIPITATION OR FOG.

+ - STATION NOT QUALITY CONTROLLED BY THE NATIONAL WEATHER SERVICE.
    USE DATA WITH CAUTION...ESPECIALLY DEWPOINT AND RELATIVE
    HUMIDITY OBSERVATIONS.

INZ001>003-010>013-019-020-011800-
NORTHWEST INDIANA

CITY           SKY/WX    TMP DP  RH WIND       PRES   REMARKS
GARY /AIRPORT/ CLOUDY    64  63  94 VRB5      30.01
KNOX *+        CLOUDY    59  50  72 S6        30.00S
LA PORTE +     CLOUDY   N/A N/A N/A CALM      30.01R
MICHIGAN CITY+ CLOUDY    61  61 100 CALM      30.00S
MONTICELLO +   CLOUDY    59  54  83 S8        30.01S
RENSSELAER +   LGT RAIN  61  59  94 W3        30.00F
VALPARAISO     CLOUDY    62  59  90 VRB3      30.00S

$$

LMZ046-743>745-011800-
SOUTHERN LAKE MICHIGAN

STATION/POSITION TIME  TEMP    WIND        PRES    WAVE
                       AIR SEA DIR/SP/G            HT
                 (UTC) (F)     (DEG/KT/KT) (MB)    (FT)
BURNS HARBOR     1640   63      60/ 11/ 12 1016.3S
MICHIGAN CITY    1640   60      30/  8/  9   N/A
5NW MICH CITY    1700   61 64   50/  8/ 10   N/A     4

$$

INZ004-005-014>016-021>024-011800-
NORTH CENTRAL INDIANA

CITY           SKY/WX    TMP DP  RH WIND       PRES   REMARKS
ELKHART        PTSUNNY   64  55  72 S12       30.01S
GOSHEN         PTSUNNY   63  53  70 S12       30.01F
LOGANSPORT +   CLOUDY    59  55  88 S8        30.03S
PERU/GRISSOM   CLOUDY    60  57  88 S8        30.01F
ROCHESTER +    PTSUNNY   61  59  94 S9        30.02F
SOUTH BEND     PTSUNNY   65  58  78 S8        30.00S
WARSAW +       CLOUDY    61  52  72 SW5       30.02S

$$

INZ006>009-017-018-025>027-011800-
NORTHEAST INDIANA

CITY           SKY/WX    TMP DP  RH WIND       PRES   REMARKS
ANGOLA *+        N/A     63  54  72 S7        30.03S
AUBURN +       PTSUNNY   63  52  67 CALM      30.03F
FORT WAYNE     PTSUNNY   62  54  74 S8        30.03F
HUNTINGTON +   CLOUDY    61  54  78 SE5       30.02F
KENDALLVILLE + PTSUNNY   64  54  68 S8        30.03F

$$

INZ028-029-035-036-043>045-051>053-011800-
WEST CENTRAL INDIANA

CITY           SKY/WX    TMP DP  RH WIND       PRES   REMARKS
CRAWFORDSVL +  CLOUDY    59  58  98 S6        30.03S
GREENCASTLE +  CLOUDY    61  57  88 S5        30.03F
LAFAYETTE      CLOUDY    59  58  96 SE3       30.01F
TERRE HAUTE    CLOUDY    60  56  86 S5        30.03F

$$

INZ030>032-037>040-046>048-054>057-064-065-011800-
CENTRAL INDIANA

CITY           SKY/WX    TMP DP  RH WIND       PRES   REMARKS
ANDERSON       CLOUDY    66  55  68 S8        30.04S
COLUMBUS       CLOUDY    59  57  94 S8        30.05F
FRANKFORT +    CLOUDY    63  55  76 SW3       30.04F
GREENWOOD *+   MOSUNNY   63  57  82 SE6       30.04F
INDIANAPOLIS   PTSUNNY   61  55  81 CALM      30.03S
-EAGLE CREEK   PTSUNNY   64  54  69 VRB3      30.02F
KOKOMO *+      CLOUDY    59  56  89 S7        30.04S
MARION +       CLOUDY    61  53  75 SW6       30.03F
MT COMFORT *+  CLOUDY    63  54  72 SW5       30.04S
SHELBYVILLE    CLOUDY    62  53  72 S7        30.03F
ZIONSVILLE +   CLOUDY    59  53  78 SE3       30.04S

$$

INZ033-034-041-042-049-050-058-059-011800-
EAST CENTRAL INDIANA

CITY           SKY/WX    TMP DP  RH WIND       PRES   REMARKS
MUNCIE         CLOUDY    63  54  72 S6        30.03F

$$

INZ060-061-067>069-081>083-085>088-011800-
SOUTHWEST INDIANA

CITY           SKY/WX    TMP DP  RH WIND       PRES   REMARKS
EVANSVILLE     CLOUDY    68  60  75 W5        30.03S
HUNTINGBURG *+   N/A     66  57  72 SW5       30.04S
WASHINGTON +   CLOUDY    63  60  89 S6        30.03S

$$

INZ062-063-066-070>080-084-089>092-011800-
SOUTH CENTRAL AND SOUTHEAST INDIANA

CITY           SKY/WX    TMP DP  RH WIND       PRES   REMARKS
BLOOMINGTON    CLOUDY    58  54  86 SE5       30.05R FOG
MADISON *+     CLOUDY    59  55  88 CALM      30.08S
NORTH VERNON + CLOUDY   N/A N/A N/A S7        30.06
SEYMOUR +      CLOUDY    59  57  94 CALM      30.06S FOG

$$





USA.gov is the U.S. government's official web portal to all federal, state and local government web resources and services.